Regional Weather Roundup
Issued by NWS

Home | Current Version | Previous Version | Graphics & Text | Print | Product List | Glossary On
Versions: 1 2 3 4 5 6 7 8 9 10 11 12 13 14 15 16 17 18 19 20 21 22 23 24 25 26 27 28 29 30 31 32 33 34 35 36 37 38 39 40 41 42 43 44 45 46 47 48 49 50
000
ASUS43 KDTX 260210
RWRMI
MICHIGAN HOURLY REGIONAL WEATHER ROUNDUP
NATIONAL WEATHER SERVICE DETROIT/PONTIAC MI
1000 PM EDT MON SEP 25 2017

NOTE: "FAIR" INDICATES FEW OR NO CLOUDS BELOW 12,000 FEET WITH NO
SIGNIFICANT WEATHER AND/OR OBSTRUCTION TO VISIBILITY.

MIZ047>049-052>055-059>063-066>070-074>076-081>083-260300-
SOUTHEAST LOWER MICHIGAN

CITY           SKY/WX    TMP DP  RH WIND       PRES   REMARKS
ADRIAN         CLEAR     72  63  73 CALM      30.00S
ALMA           CLEAR     66  57  72 N5        29.98S
ANN ARBOR      CLEAR     67  64  90 CALM      29.99S
BAD AXE        PTCLDY    73  64  73 CALM      30.00R
CARO           PTCLDY    72  65  78 E3        29.98S
DETROIT CITY   PTCLDY    76  65  68 S5        29.99S
DETROIT        MOCLDY    76  67  73 SE5       29.99S
FLINT          MOCLDY    76  64  66 S5        29.99R
GROSSE ILE     PTCLDY    75  70  84 CALM      29.98S
HILLSDALE      MOCLDY    72  61  68 SE5       30.00S
HOWELL         CLEAR     76  61  60 SE3       30.00R

CITY           SKY/WX    TMP DP  RH WIND       PRES   REMARKS
JACKSON        CLEAR     77  61  57 SE5       29.99S
LAMBERTVILLE   PTCLDY    72  66  83 CALM      29.98S
LANSING        MOCLDY    73  62  68 CALM      29.99R
LAPEER         FAIR      69  64  85 CALM      30.00R
MASON          PTCLDY    76  62  61 S7        29.99S
MONROE         PTCLDY    76  67  73 CALM      29.98S
MT. CLEMENS    PTCLDY    73  70  91 S5        29.98R
PONTIAC        PTCLDY    73  63  70 CALM      29.99S
PORT HOPE        N/A     72  66  81 S5        29.97S
PORT HURON       N/A     68  66  94 CALM      29.99S FOG
TRI CITIES     PTCLDY    73  68  84 CALM      29.98S
MIDLAND        FAIR      69  67  94 CALM      29.97S
TROY           CLEAR     79  63  58 CALM      30.01S
SAGINAW HB     PTCLDY    72  64  78 CALM      29.97S
$$
MIZ043>046-050>051-056>058-064>065-071>073-077>080-260300-
SOUTHWEST LOWER MICHIGAN

CITY           SKY/WX    TMP DP  RH WIND       PRES   REMARKS
BATTLE CREEK   CLEAR     73  59  61 CALM      29.99S
BENTON HARBOR  CLEAR     68  62  81 CALM      29.96S
BIG RAPIDS     PTCLDY    66  56  70 CALM      29.97F
COLDWATER      CLEAR     68  63  84 CALM      29.99S
FREMONT        FAIR      67  57  70 CALM      29.97R
HOLLAND        PTCLDY    67  59  75 CALM      29.97S
GRAND RAPIDS   MOCLDY    70  62  76 SE3       29.97S
IONIA          FAIR      73  55  54 CALM      29.97S
KALAMAZOO      CLEAR     70  58  65 CALM      29.98S
LUDINGTON      CLEAR     62  60  91 CALM      29.95R
MARSHALL       CLEAR     68  61  78 CALM      29.98F
MOUNT PLEASANT PTCLDY    69  61  76 CALM      29.97F
MUSKEGON       PTCLDY    69  61  75 CALM      29.96S
SOUTH HAVEN    PTCLDY    68  63  84 CALM      29.97R
$$
MIZ016>042-260300-
NORTHERN LOWER MICHIGAN

CITY           SKY/WX    TMP DP  RH WIND       PRES   REMARKS
ALPENA         CLEAR     69  68  96 CALM      29.99S
BEAVER ISLAND  CLEAR     63  63  98 CALM      29.95F FOG
BELLAIRE       CLEAR     66  63  90 CALM      29.95F
CADILLAC       CLEAR     68  54  60 CALM      29.99S
CHARLEVOIX     CLEAR     69  62  77 SE3       29.97F
FRANKFORT      CLEAR     64  62  93 CALM      29.95S
GAYLORD        CLEAR     71  57  61 CALM      29.99F
GRAYLING       CLEAR     62  55  76 CALM      30.00S
HARBOR SPRINGS CLEAR     69  63  80 NE3       29.96S
HOUGHTON LAKE  CLEAR     65  60  84 SE5       30.00S
MANISTEE       CLEAR     64  61  90 CALM      29.95S
OSCODA         CLEAR     68  66  93 W8        29.98S
PELLSTON       CLEAR     64  62  93 CALM      29.96F
ROGERS CITY    CLEAR     75  65  71 S8        29.98S
TRAVERSE CITY  PTCLDY    70  63  78 CALM      29.94S
$$
MIZ007>008-015-260300-
EASTERN UPPER MICHIGAN

CITY           SKY/WX    TMP DP  RH WIND       PRES   REMARKS
KINROSS        CLEAR     69  63  81 SE6       29.96F
MACKINAC ISLAN CLEAR     73  63  71 E8        29.95F
NEWBERRY       CLEAR     64  63  97 CALM      29.96R
S. S. MARIE    CLEAR     70  64  81 E3        29.96S
MUNISING         N/A     64  64 100 N5        29.95S
$$
MIZ004>006-011>014-085-260300-
CENTRAL UPPER MICHIGAN

CITY           SKY/WX    TMP DP  RH WIND       PRES   REMARKS
MANISTIQUE     CLEAR     62  56  81 CALM      29.95S HAZE
MENOMINEE      CLEAR     72  62  71 SW6       29.93S
SAWYER-GWINN   CLOUDY    63  61  94 CALM      29.98R FOG
$$
MIZ001>003-009>011-084-260300-
WESTERN UPPER MICHIGAN

CITY           SKY/WX    TMP DP  RH WIND       PRES   REMARKS
IRON MOUNTAIN  PTCLDY    72  63  73 CALM      29.93R
HOUGHTON       LGT RAIN  56  53  90 N14       29.98S
COPPER HARBOR    N/A     59  54  83 NE10G21   30.01R
$$

ABBREVIATIONS USED IN REMARKS
   TC - TEMPERATURE IN CELSIUS
  WCI - WIND CHILL INDEX
   HX - HEAT INDEX
  VSB - VISIBILITY





USA.gov is the U.S. government's official web portal to all federal, state and local government web resources and services.